| time (UTC) | temp C | wind direction | speed KPH | gust KPH | rain 1hr cm | rain 24hr cm | rain mn cm | humidity % | barometer mb |
| 20260903152518 | 21 | 281 | 3.2 | 6.4 | 0.00 | 0.00 | 0.00 | 18 | 1017.7 |
| 20260903152018 | 21 | 202 | 3.2 | 9.7 | 0.00 | 0.00 | 0.00 | 19 | 1017.9 |
| 20260903151518 | 20 | 220 | 3.2 | 9.7 | 0.00 | 0.00 | 0.00 | 18 | 1017.9 |
| 20260903151018 | 20 | 225 | 3.2 | 9.7 | 0.00 | 0.00 | 0.00 | 19 | 1017.9 |
| 20260903150518 | 20 | 228 | 3.2 | 8.0 | 0.00 | 0.00 | 0.00 | 19 | 1017.9 |
| 20260903150018 | 20 | 228 | 3.2 | 8.0 | 0.00 | 0.00 | 0.00 | 19 | 1017.9 |
| 20260903145518 | 20 | 230 | 1.6 | 4.8 | 0.00 | 0.00 | 0.00 | 19 | 1017.8 |
| 20260903145018 | 20 | 232 | 1.6 | 11.3 | 0.00 | 0.00 | 0.00 | 19 | 1017.9 |
| 20260903144518 | 20 | 219 | 3.2 | 8.0 | 0.00 | 0.00 | 0.00 | 19 | 1017.8 |
| 20260903144018 | 20 | 219 | 3.2 | 9.7 | 0.00 | 0.00 | 0.00 | 19 | 1017.8 |
| 20260903143518 | 20 | 220 | 3.2 | 11.3 | 0.00 | 0.00 | 0.00 | 18 | 1017.8 |
| 20260903143018 | 20 | 228 | 3.2 | 9.7 | 0.00 | 0.00 | 0.00 | 19 | 1017.8 |
| 20260903142518 | 20 | 236 | 3.2 | 9.7 | 0.00 | 0.00 | 0.00 | 19 | 1017.8 |
| 20260903142018 | 19 | 202 | 3.2 | 11.3 | 0.00 | 0.00 | 0.00 | 19 | 1017.7 |
| 20260903141518 | 19 | 197 | 3.2 | 16.1 | 0.00 | 0.00 | 0.00 | 19 | 1017.7 |
| 20260903141018 | 19 | 232 | 3.2 | 9.7 | 0.00 | 0.00 | 0.00 | 19 | 1017.7 |
| 20260903140518 | 19 | 227 | 3.2 | 9.7 | 0.00 | 0.00 | 0.00 | 19 | 1017.7 |
| 20260903140018 | 19 | 240 | 3.2 | 11.3 | 0.00 | 0.00 | 0.00 | 19 | 1017.8 |
| 20260903135518 | 18 | 230 | 3.2 | 8.0 | 0.00 | 0.00 | 0.00 | 19 | 1017.8 |
| 20260903135018 | 18 | 236 | 3.2 | 11.3 | 0.00 | 0.00 | 0.00 | 19 | 1017.8 |
| 20260903134518 | 18 | 245 | 1.6 | 9.7 | 0.00 | 0.00 | 0.00 | 19 | 1017.7 |
| 20260903134018 | 18 | 250 | 1.6 | 8.0 | 0.00 | 0.00 | 0.00 | 19 | 1017.7 |
| 20260903133518 | 18 | 227 | 1.6 | 8.0 | 0.00 | 0.00 | 0.00 | 19 | 1017.6 |
| 20260903133018 | 17 | 226 | 1.6 | 6.4 | 0.00 | 0.00 | 0.00 | 19 | 1017.6 |
| 20260903132518 | 17 | 229 | 1.6 | 8.0 | 0.00 | 0.00 | 0.00 | 19 | 1017.5 |
| 20260903132018 | 17 | 225 | 1.6 | 12.9 | 0.00 | 0.00 | 0.00 | 20 | 1017.4 |
| 20260903131518 | 17 | 219 | 1.6 | 4.8 | 0.00 | 0.00 | 0.00 | 20 | 1017.3 |
| 20260903131018 | 17 | 219 | 1.6 | 6.4 | 0.00 | 0.00 | 0.00 | 20 | 1017.2 |
| 20260903130518 | 17 | 209 | 3.2 | 6.4 | 0.00 | 0.00 | 0.00 | 20 | 1017.1 |
| 20260903130018 | 17 | 212 | 3.2 | 8.0 | 0.00 | 0.00 | 0.00 | 20 | 1017.0 |
| 20260903125518 | 17 | 214 | 3.2 | 6.4 | 0.00 | 0.00 | 0.00 | 19 | 1017.0 |
| 20260903125018 | 17 | 215 | 3.2 | 8.0 | 0.00 | 0.00 | 0.00 | 19 | 1016.9 |
| 20260903124518 | 17 | 225 | 3.2 | 9.7 | 0.00 | 0.00 | 0.00 | 19 | 1016.9 |
| 20260903124018 | 17 | 220 | 3.2 | 6.4 | 0.00 | 0.00 | 0.00 | 20 | 1016.9 |
| 20260903123518 | 17 | 198 | 3.2 | 11.3 | 0.00 | 0.00 | 0.00 | 20 | 1016.9 |
| 20260903123018 | 17 | 220 | 3.2 | 8.0 | 0.00 | 0.00 | 0.00 | 21 | 1016.9 |
| 20260903122518 | 17 | 187 | 3.2 | 9.7 | 0.00 | 0.00 | 0.00 | 22 | 1016.9 |
| 20260903122018 | 17 | 205 | 3.2 | 8.0 | 0.00 | 0.00 | 0.00 | 21 | 1016.8 |
| 20260903121518 | 17 | 213 | 3.2 | 12.9 | 0.00 | 0.00 | 0.00 | 22 | 1016.8 |
| 20260903121018 | 17 | 205 | 1.6 | 9.7 | 0.00 | 0.00 | 0.00 | 20 | 1016.7 |
| 20260903120518 | 18 | 190 | 1.6 | 11.3 | 0.00 | 0.00 | 0.00 | 22 | 1016.7 |
| 20260903120018 | 18 | 203 | 1.6 | 8.0 | 0.00 | 0.00 | 0.00 | 19 | 1016.7 |
| 20260903115518 | 18 | 207 | 1.6 | 4.8 | 0.00 | 0.00 | 0.00 | 19 | 1016.7 |
| 20260903115018 | 18 | 207 | 1.6 | 8.0 | 0.00 | 0.00 | 0.00 | 18 | 1016.6 |
| 20260903114518 | 18 | 198 | 1.6 | 1.6 | 0.00 | 0.00 | 0.00 | 19 | 1016.6 |
| 20260903114018 | 18 | 207 | 1.6 | 11.3 | 0.00 | 0.00 | 0.00 | 18 | 1016.5 |
| 20260903113518 | 18 | 208 | 1.6 | 6.4 | 0.00 | 0.00 | 0.00 | 19 | 1016.6 |
| 20260903113018 | 18 | 211 | 1.6 | 8.0 | 0.00 | 0.00 | 0.00 | 19 | 1016.5 |
| 20260903112518 | 18 | 213 | 1.6 | 11.3 | 0.00 | 0.00 | 0.00 | 18 | 1016.6 |
| 20260903112018 | 18 | 200 | 1.6 | 6.4 | 0.00 | 0.00 | 0.00 | 20 | 1016.7 |
| 20260903111518 | 18 | 203 | 1.6 | 6.4 | 0.00 | 0.00 | 0.00 | 18 | 1016.6 |
| 20260903111018 | 18 | 215 | 1.6 | 6.4 | 0.00 | 0.00 | 0.00 | 19 | 1016.6 |
| 20260903110518 | 18 | 211 | 1.6 | 9.7 | 0.00 | 0.00 | 0.00 | 17 | 1016.6 |
| 20260903110018 | 18 | 211 | 1.6 | 4.8 | 0.00 | 0.00 | 0.00 | 18 | 1016.6 |
| 20260903105518 | 18 | 213 | 1.6 | 6.4 | 0.00 | 0.00 | 0.00 | 18 | 1016.5 |
| 20260903105018 | 18 | 213 | 1.6 | 4.8 | 0.00 | 0.00 | 0.00 | 19 | 1016.5 |
| 20260903104518 | 18 | 214 | 1.6 | 8.0 | 0.00 | 0.00 | 0.00 | 19 | 1016.4 |
| 20260903104018 | 18 | 207 | 1.6 | 8.0 | 0.00 | 0.00 | 0.00 | 20 | 1016.4 |
| 20260903103518 | 18 | 202 | 1.6 | 6.4 | 0.00 | 0.00 | 0.00 | 18 | 1016.3 |
| 20260903103018 | 18 | 227 | 3.2 | 4.8 | 0.00 | 0.00 | 0.00 | 18 | 1016.4 |
| 20260903102518 | 18 | 213 | 1.6 | 6.4 | 0.00 | 0.00 | 0.00 | 18 | 1016.3 |
| 20260903102018 | 18 | 189 | 1.6 | 6.4 | 0.00 | 0.00 | 0.00 | 19 | 1016.3 |
| 20260903101518 | 18 | 199 | 1.6 | 11.3 | 0.00 | 0.00 | 0.00 | 19 | 1016.3 |
| 20260903101018 | 18 | 213 | 1.6 | 11.3 | 0.00 | 0.00 | 0.00 | 20 | 1016.4 |
| 20260903100518 | 17 | 215 | 1.6 | 8.0 | 0.00 | 0.00 | 0.00 | 20 | 1016.3 |
| 20260903100018 | 17 | 232 | 1.6 | 16.1 | 0.00 | 0.00 | 0.00 | 22 | 1016.2 |
| 20260903095518 | 17 | 268 | 1.6 | 8.0 | 0.00 | 0.00 | 0.00 | 26 | 1016.2 |
| 20260903095018 | 17 | 186 | 1.6 | 12.9 | 0.00 | 0.00 | 0.00 | 25 | 1016.2 |
| 20260903094518 | 18 | 146 | 1.6 | 8.0 | 0.00 | 0.00 | 0.00 | 27 | 1016.1 |
| 20260903094018 | 18 | 212 | 1.6 | 9.7 | 0.00 | 0.00 | 0.00 | 23 | 1016.1 |
| 20260903093518 | 18 | 203 | 1.6 | 8.0 | 0.00 | 0.00 | 0.00 | 19 | 1016.0 |
| 20260903093018 | 18 | 222 | 1.6 | 8.0 | 0.00 | 0.00 | 0.00 | 19 | 1016.1 |
| 20260903092518 | 18 | 257 | 0.0 | 4.8 | 0.00 | 0.00 | 0.00 | 18 | 1016.1 |
| 20260903092018 | 18 | 259 | 0.0 | 6.4 | 0.00 | 0.00 | 0.00 | 19 | 1016.0 |
| 20260903091518 | 17 | 261 | 0.0 | 6.4 | 0.00 | 0.00 | 0.00 | 21 | 1016.0 |
| 20260903091019 | 17 | 262 | 0.0 | 12.9 | 0.00 | 0.00 | 0.00 | 21 | 1016.0 |
| 20260903090518 | 17 | 262 | 0.0 | 8.0 | 0.00 | 0.00 | 0.00 | 24 | 1016.1 |
| 20260903090018 | 17 | 256 | 0.0 | 0.0 | 0.00 | 0.00 | 0.00 | 30 | 1016.1 |
| 20260903085518 | 17 | 256 | 0.0 | 0.0 | 0.00 | 0.00 | 0.00 | 28 | 1016.1 |
| 20260903085018 | 17 | 256 | 0.0 | 0.0 | 0.00 | 0.00 | 0.00 | 31 | 1016.1 |
| 20260903084518 | 17 | 256 | 0.0 | 0.0 | 0.00 | 0.00 | 0.00 | 30 | 1016.0 |
| 20260903084018 | 18 | 256 | 0.0 | 0.0 | 0.00 | 0.00 | 0.00 | 28 | 1016.1 |
| 20260903083518 | 18 | 256 | 0.0 | 0.0 | 0.00 | 0.00 | 0.00 | 29 | 1016.1 |
| 20260903083018 | 18 | 256 | 0.0 | 0.0 | 0.00 | 0.00 | 0.00 | 28 | 1016.1 |
| 20260903082518 | 19 | 256 | 0.0 | 0.0 | 0.00 | 0.00 | 0.00 | 24 | 1016.1 |
| 20260903082018 | 19 | 256 | 0.0 | 0.0 | 0.00 | 0.00 | 0.00 | 18 | 1016.1 |
| 20260903081518 | 19 | 256 | 0.0 | 1.6 | 0.00 | 0.00 | 0.00 | 19 | 1016.1 |
| 20260903081018 | 19 | 256 | 0.0 | 0.0 | 0.00 | 0.00 | 0.00 | 18 | 1016.0 |
| 20260903080518 | 19 | 256 | 0.0 | 0.0 | 0.00 | 0.00 | 0.00 | 18 | 1016.1 |
| 20260903080018 | 19 | 256 | 0.0 | 0.0 | 0.00 | 0.00 | 0.00 | 19 | 1016.0 |
| 20260903075518 | 19 | 256 | 0.0 | 0.0 | 0.00 | 0.00 | 0.00 | 18 | 1016.0 |
| 20260903075018 | 19 | 256 | 0.0 | 1.6 | 0.00 | 0.00 | 0.00 | 19 | 1015.9 |
| 20260903074518 | 19 | 256 | 0.0 | 4.8 | 0.00 | 0.00 | 0.00 | 19 | 1015.9 |
| 20260903074018 | 19 | 256 | 0.0 | 0.0 | 0.00 | 0.00 | 0.00 | 19 | 1016.0 |
| 20260903073518 | 18 | 256 | 0.0 | 1.6 | 0.00 | 0.00 | 0.00 | 19 | 1015.9 |
| 20260903073018 | 18 | 256 | 0.0 | 0.0 | 0.00 | 0.00 | 0.00 | 19 | 1015.8 |
| 20260903072519 | 18 | 256 | 0.0 | 4.8 | 0.00 | 0.00 | 0.00 | 20 | 1015.8 |
| 20260903072019 | 18 | 256 | 0.0 | 0.0 | 0.00 | 0.00 | 0.00 | 21 | 1015.9 |
| 20260903071519 | 18 | 256 | 0.0 | 0.0 | 0.00 | 0.00 | 0.00 | 21 | 1015.7 |
| 20260903071019 | 18 | 256 | 0.0 | 0.0 | 0.00 | 0.00 | 0.00 | 22 | 1015.8 |
| 20260903070519 | 18 | 256 | 0.0 | 0.0 | 0.00 | 0.00 | 0.00 | 23 | 1015.8 |
| 20260903070019 | 18 | 256 | 0.0 | 0.0 | 0.00 | 0.00 | 0.00 | 24 | 1015.7 |
| 20260903065519 | 18 | 256 | 0.0 | 0.0 | 0.00 | 0.00 | 0.00 | 25 | 1015.6 |
| 20260903065019 | 18 | 256 | 0.0 | 0.0 | 0.00 | 0.00 | 0.00 | 24 | 1015.6 |
| 20260903064519 | 18 | 256 | 0.0 | 0.0 | 0.00 | 0.00 | 0.00 | 26 | 1015.5 |
| 20260903064019 | 18 | 256 | 0.0 | 0.0 | 0.00 | 0.00 | 0.00 | 29 | 1015.5 |
| 20260903063519 | 18 | 256 | 0.0 | 0.0 | 0.00 | 0.00 | 0.00 | 26 | 1015.5 |
| 20260903063019 | 18 | 256 | 0.0 | 0.0 | 0.00 | 0.00 | 0.00 | 27 | 1015.4 |
| 20260903062519 | 18 | 256 | 0.0 | 0.0 | 0.00 | 0.00 | 0.00 | 28 | 1015.5 |
| 20260903062019 | 18 | 256 | 0.0 | 0.0 | 0.00 | 0.00 | 0.00 | 27 | 1015.4 |
| 20260903061519 | 18 | 256 | 0.0 | 0.0 | 0.00 | 0.00 | 0.00 | 27 | 1015.4 |
| 20260903061019 | 18 | 256 | 0.0 | 0.0 | 0.00 | 0.00 | 0.00 | 27 | 1015.4 |
| 20260903060519 | 18 | 256 | 0.0 | 0.0 | 0.00 | 0.00 | 0.00 | 27 | 1015.3 |
| 20260903060019 | 18 | 256 | 0.0 | 0.0 | 0.00 | 0.00 | 0.00 | 27 | 1015.3 |
| 20260903055519 | 18 | 256 | 0.0 | 0.0 | 0.00 | 0.00 | 0.00 | 26 | 1015.1 |
| 20260903055019 | 18 | 256 | 0.0 | 0.0 | 0.00 | 0.00 | 0.00 | 27 | 1015.2 |
| 20260903054519 | 19 | 256 | 0.0 | 0.0 | 0.00 | 0.00 | 0.00 | 28 | 1015.2 |
| 20260903054019 | 19 | 256 | 0.0 | 0.0 | 0.00 | 0.00 | 0.00 | 29 | 1015.3 |
| 20260903053519 | 20 | 256 | 0.0 | 0.0 | 0.00 | 0.00 | 0.00 | 32 | 1015.4 |
| 20260903053019 | 20 | 256 | 0.0 | 0.0 | 0.00 | 0.00 | 0.00 | 25 | 1015.3 |
| 20260903052519 | 20 | 256 | 0.0 | 0.0 | 0.00 | 0.00 | 0.00 | 25 | 1015.2 |
| 20260903052019 | 20 | 256 | 0.0 | 0.0 | 0.00 | 0.00 | 0.00 | 24 | 1015.2 |
| 20260903051519 | 21 | 256 | 0.0 | 0.0 | 0.00 | 0.00 | 0.00 | 22 | 1015.2 |
| 20260903051019 | 21 | 256 | 0.0 | 0.0 | 0.00 | 0.00 | 0.00 | 22 | 1015.2 |
| 20260903050519 | 21 | 256 | 0.0 | 0.0 | 0.00 | 0.00 | 0.00 | 23 | 1015.3 |
| 20260903050019 | 21 | 256 | 0.0 | 0.0 | 0.00 | 0.00 | 0.00 | 23 | 1015.3 |
| 20260903045519 | 22 | 256 | 0.0 | 0.0 | 0.00 | 0.00 | 0.00 | 21 | 1015.3 |
| 20260903045019 | 22 | 256 | 0.0 | 0.0 | 0.00 | 0.00 | 0.00 | 19 | 1015.4 |
| 20260903044519 | 22 | 256 | 0.0 | 0.0 | 0.00 | 0.00 | 0.00 | 18 | 1015.5 |
| 20260903044019 | 22 | 256 | 0.0 | 0.0 | 0.00 | 0.00 | 0.00 | 17 | 1015.5 |
| 20260903043519 | 23 | 256 | 0.0 | 0.0 | 0.00 | 0.00 | 0.00 | 16 | 1015.6 |
| 20260903043019 | 23 | 256 | 0.0 | 3.2 | 0.00 | 0.00 | 0.00 | 15 | 1015.5 |
| 20260903042519 | 23 | 256 | 0.0 | 4.8 | 0.00 | 0.00 | 0.00 | 15 | 1015.4 |
| 20260903042019 | 23 | 256 | 0.0 | 4.8 | 0.00 | 0.00 | 0.00 | 15 | 1015.4 |
| 20260903041519 | 23 | 256 | 0.0 | 0.0 | 0.00 | 0.00 | 0.00 | 15 | 1015.4 |
| 20260903041019 | 23 | 256 | 1.6 | 9.7 | 0.00 | 0.00 | 0.00 | 15 | 1015.3 |
| 20260903040519 | 23 | 257 | 0.0 | 9.7 | 0.00 | 0.00 | 0.00 | 15 | 1015.2 |
| 20260903040019 | 23 | 257 | 0.0 | 3.2 | 0.00 | 0.00 | 0.00 | 15 | 1015.2 |
| 20260903035519 | 23 | 257 | 0.0 | 3.2 | 0.00 | 0.00 | 0.00 | 15 | 1014.9 |
| 20260903035019 | 23 | 257 | 0.0 | 4.8 | 0.00 | 0.00 | 0.00 | 15 | 1014.9 |
| 20260903034519 | 23 | 257 | 0.0 | 4.8 | 0.00 | 0.00 | 0.00 | 15 | 1014.9 |
| 20260903034019 | 23 | 257 | 0.0 | 6.4 | 0.00 | 0.00 | 0.00 | 15 | 1014.9 |
| 20260903033519 | 23 | 257 | 0.0 | 8.0 | 0.00 | 0.00 | 0.00 | 14 | 1014.8 |
| 20260903033019 | 23 | 257 | 0.0 | 8.0 | 0.00 | 0.00 | 0.00 | 15 | 1014.9 |
| 20260903032519 | 23 | 257 | 0.0 | 4.8 | 0.00 | 0.00 | 0.00 | 14 | 1014.9 |
| 20260903032019 | 23 | 258 | 0.0 | 0.0 | 0.00 | 0.00 | 0.00 | 14 | 1014.8 |
| 20260903031519 | 23 | 258 | 0.0 | 1.6 | 0.00 | 0.00 | 0.00 | 14 | 1014.9 |
| 20260903031019 | 23 | 258 | 1.6 | 4.8 | 0.00 | 0.00 | 0.00 | 14 | 1014.8 |
| 20260903030519 | 23 | 258 | 1.6 | 8.0 | 0.00 | 0.00 | 0.00 | 14 | 1014.8 |
| 20260903030019 | 23 | 258 | 1.6 | 6.4 | 0.00 | 0.00 | 0.00 | 14 | 1014.9 |
| 20260903025519 | 23 | 258 | 0.0 | 6.4 | 0.00 | 0.00 | 0.00 | 14 | 1014.8 |
| 20260903025019 | 23 | 258 | 0.0 | 3.2 | 0.00 | 0.00 | 0.00 | 14 | 1014.9 |
| 20260903024519 | 23 | 258 | 0.0 | 6.4 | 0.00 | 0.00 | 0.00 | 14 | 1014.7 |
| 20260903024019 | 23 | 258 | 0.0 | 3.2 | 0.00 | 0.00 | 0.00 | 14 | 1014.6 |
| 20260903023519 | 24 | 258 | 0.0 | 0.0 | 0.00 | 0.00 | 0.00 | 14 | 1014.6 |
| 20260903023019 | 24 | 258 | 0.0 | 3.2 | 0.00 | 0.00 | 0.00 | 14 | 1014.5 |
| 20260903022519 | 24 | 258 | 0.0 | 0.0 | 0.00 | 0.00 | 0.00 | 13 | 1014.5 |
| 20260903022019 | 24 | 258 | 0.0 | 3.2 | 0.00 | 0.00 | 0.00 | 13 | 1014.5 |
| 20260903021519 | 24 | 258 | 0.0 | 0.0 | 0.00 | 0.00 | 0.00 | 13 | 1014.4 |
| 20260903021019 | 24 | 258 | 0.0 | 0.0 | 0.00 | 0.00 | 0.00 | 13 | 1014.4 |
| 20260903020519 | 25 | 258 | 1.6 | 6.4 | 0.00 | 0.00 | 0.00 | 13 | 1014.4 |
| 20260903020019 | 25 | 259 | 1.6 | 8.0 | 0.00 | 0.00 | 0.00 | 13 | 1014.5 |
| 20260903015519 | 25 | 258 | 1.6 | 8.0 | 0.00 | 0.00 | 0.00 | 12 | 1014.5 |
| 20260903015019 | 25 | 259 | 0.0 | 0.0 | 0.00 | 0.00 | 0.00 | 13 | 1014.6 |
| 20260903014519 | 25 | 259 | 0.0 | 1.6 | 0.00 | 0.00 | 0.00 | 13 | 1014.6 |
| 20260903014019 | 25 | 259 | 0.0 | 3.2 | 0.00 | 0.00 | 0.00 | 13 | 1014.6 |
| 20260903013519 | 25 | 259 | 1.6 | 6.4 | 0.00 | 0.00 | 0.00 | 13 | 1014.6 |
| 20260903013019 | 25 | 259 | 1.6 | 6.4 | 0.00 | 0.00 | 0.00 | 14 | 1014.6 |
| 20260903012519 | 25 | 259 | 0.0 | 3.2 | 0.00 | 0.00 | 0.00 | 15 | 1014.7 |
| 20260903012019 | 25 | 259 | 0.0 | 6.4 | 0.00 | 0.00 | 0.00 | 15 | 1014.7 |
| 20260903011519 | 25 | 259 | 0.0 | 3.2 | 0.00 | 0.00 | 0.00 | 14 | 1014.7 |
| 20260903011019 | 25 | 259 | 0.0 | 0.0 | 0.00 | 0.00 | 0.00 | 15 | 1014.8 |
| 20260903010519 | 25 | 259 | 0.0 | 0.0 | 0.00 | 0.00 | 0.00 | 14 | 1014.9 |
| 20260903010019 | 25 | 259 | 1.6 | 8.0 | 0.00 | 0.00 | 0.00 | 14 | 1015.0 |
| 20260903005519 | 25 | 259 | 1.6 | 9.7 | 0.00 | 0.00 | 0.00 | 13 | 1014.9 |
| 20260903005019 | 25 | 258 | 1.6 | 8.0 | 0.00 | 0.00 | 0.00 | 14 | 1014.9 |
| 20260903004519 | 26 | 262 | 1.6 | 9.7 | 0.00 | 0.00 | 0.00 | 14 | 1014.9 |
| 20260903004019 | 26 | 264 | 1.6 | 8.0 | 0.00 | 0.00 | 0.00 | 15 | 1015.1 |
| 20260903003519 | 26 | 264 | 1.6 | 8.0 | 0.00 | 0.00 | 0.00 | 15 | 1015.2 |
| 20260903003019 | 26 | 264 | 0.0 | 8.0 | 0.00 | 0.00 | 0.00 | 14 | 1014.9 |
| 20260903002519 | 26 | 264 | 0.0 | 6.4 | 0.00 | 0.00 | 0.00 | 15 | 1015.1 |
| 20260903002019 | 26 | 264 | 1.6 | 8.0 | 0.00 | 0.00 | 0.00 | 15 | 1015.2 |
| 20260903001519 | 26 | 264 | 1.6 | 4.8 | 0.00 | 0.00 | 0.00 | 14 | 1015.2 |
| 20260903001019 | 26 | 265 | 3.2 | 12.9 | 0.00 | 0.00 | 0.00 | 14 | 1015.2 |
| 20260903000519 | 26 | 261 | 3.2 | 11.3 | 0.00 | 0.00 | 0.00 | 15 | 1015.3 |
| 20260903000019 | 26 | 261 | 3.2 | 11.3 | 0.00 | 0.00 | 0.00 | 14 | 1015.3 |
| 20260902235519 | 26 | 263 | 1.6 | 16.1 | 0.00 | 0.00 | 0.00 | 14 | 1015.3 |
| 20260902235019 | 26 | 296 | 1.6 | 6.4 | 0.00 | 0.00 | 0.00 | 14 | 1015.1 |
| 20260902234519 | 26 | 296 | 3.2 | 14.5 | 0.00 | 0.00 | 0.00 | 15 | 1015.1 |
| 20260902234019 | 26 | 251 | 3.2 | 11.3 | 0.00 | 0.00 | 0.00 | 15 | 1015.2 |
| 20260902233519 | 26 | 247 | 1.6 | 8.0 | 0.00 | 0.00 | 0.00 | 15 | 1015.1 |
| 20260902233019 | 26 | 238 | 3.2 | 11.3 | 0.00 | 0.00 | 0.00 | 15 | 1015.2 |
| 20260902232519 | 26 | 246 | 4.8 | 14.5 | 0.00 | 0.00 | 0.00 | 15 | 1015.3 |
| 20260902232019 | 27 | 264 | 4.8 | 16.1 | 0.00 | 0.00 | 0.00 | 15 | 1015.3 |
| 20260902231519 | 27 | 270 | 3.2 | 17.7 | 0.00 | 0.00 | 0.00 | 15 | 1015.4 |
| 20260902231019 | 27 | 265 | 1.6 | 8.0 | 0.00 | 0.00 | 0.00 | 14 | 1015.5 |
| 20260902230519 | 27 | 269 | 1.6 | 12.9 | 0.00 | 0.00 | 0.00 | 14 | 1015.5 |
| 20260902230019 | 27 | 272 | 3.2 | 6.4 | 0.00 | 0.00 | 0.00 | 16 | 1015.6 |
| 20260902225519 | 27 | 272 | 3.2 | 11.3 | 0.00 | 0.00 | 0.00 | 16 | 1015.6 |
| 20260902225019 | 27 | 254 | 3.2 | 11.3 | 0.00 | 0.00 | 0.00 | 16 | 1015.7 |
| 20260902224519 | 27 | 245 | 3.2 | 8.0 | 0.00 | 0.00 | 0.00 | 16 | 1015.6 |
| 20260902224019 | 27 | 254 | 3.2 | 4.8 | 0.00 | 0.00 | 0.00 | 16 | 1015.5 |
| 20260902223519 | 27 | 254 | 4.8 | 11.3 | 0.00 | 0.00 | 0.00 | 16 | 1015.4 |
| 20260902223019 | 27 | 262 | 4.8 | 14.5 | 0.00 | 0.00 | 0.00 | 16 | 1015.5 |
| 20260902222519 | 27 | 286 | 3.2 | 11.3 | 0.00 | 0.00 | 0.00 | 16 | 1015.5 |
| 20260902222019 | 27 | 283 | 3.2 | 11.3 | 0.00 | 0.00 | 0.00 | 16 | 1015.6 |
| 20260902221519 | 27 | 286 | 3.2 | 9.7 | 0.00 | 0.00 | 0.00 | 16 | 1015.6 |
| 20260902221019 | 27 | 286 | 3.2 | 9.7 | 0.00 | 0.00 | 0.00 | 18 | 1015.5 |
| 20260902220519 | 26 | 287 | 3.2 | 19.3 | 0.00 | 0.00 | 0.00 | 17 | 1015.8 |
| 20260902220019 | 26 | 282 | 3.2 | 11.3 | 0.00 | 0.00 | 0.00 | 18 | 1015.9 |
| 20260902215519 | 26 | 279 | 4.8 | 8.0 | 0.00 | 0.00 | 0.00 | 18 | 1015.8 |
| 20260902215019 | 26 | 279 | 6.4 | 22.5 | 0.00 | 0.00 | 0.00 | 18 | 1015.9 |
| 20260902214519 | 26 | 277 | 4.8 | 16.1 | 0.00 | 0.00 | 0.00 | 17 | 1016.0 |
| 20260902214019 | 27 | 243 | 4.8 | 12.9 | 0.00 | 0.00 | 0.00 | 19 | 1015.9 |
| 20260902213519 | 27 | 259 | 6.4 | 22.5 | 0.00 | 0.00 | 0.00 | 18 | 1016.0 |
| 20260902213019 | 27 | 240 | 4.8 | 17.7 | 0.00 | 0.00 | 0.00 | 20 | 1016.0 |
| 20260902212519 | 27 | 274 | 4.8 | 12.9 | 0.00 | 0.00 | 0.00 | 19 | 1016.1 |
| 20260902212019 | 27 | 285 | 4.8 | 17.7 | 0.00 | 0.00 | 0.00 | 20 | 1015.9 |
| 20260902211520 | 27 | 229 | 3.2 | 12.9 | 0.00 | 0.00 | 0.00 | 18 | 1016.0 |
| 20260902211019 | 27 | 273 | 3.2 | 9.7 | 0.00 | 0.00 | 0.00 | 19 | 1016.0 |
| 20260902210520 | 27 | 279 | 6.4 | 22.5 | 0.00 | 0.00 | 0.00 | 20 | 1016.0 |
| 20260902210019 | 27 | 279 | 6.4 | 25.7 | 0.00 | 0.00 | 0.00 | 18 | 1016.1 |
| 20260902205519 | 27 | 260 | 3.2 | 14.5 | 0.00 | 0.00 | 0.00 | 18 | 1016.3 |
| 20260902205019 | 27 | 311 | 3.2 | 8.0 | 0.00 | 0.00 | 0.00 | 22 | 1016.2 |
| 20260902204519 | 26 | 210 | 4.8 | 12.9 | 0.00 | 0.00 | 0.00 | 22 | 1016.1 |
| 20260902204019 | 26 | 213 | 4.8 | 12.9 | 0.00 | 0.00 | 0.00 | 21 | 1016.1 |
| 20260902203519 | 26 | 237 | 4.8 | 17.7 | 0.00 | 0.00 | 0.00 | 22 | 1016.1 |
| 20260902203019 | 26 | 281 | 3.2 | 12.9 | 0.00 | 0.00 | 0.00 | 21 | 1016.2 |
| 20260902202519 | 26 | 274 | 3.2 | 11.3 | 0.00 | 0.00 | 0.00 | 24 | 1016.4 |
| 20260902202019 | 26 | 281 | 3.2 | 12.9 | 0.00 | 0.00 | 0.00 | 26 | 1016.2 |
| 20260902201519 | 26 | 300 | 3.2 | 12.9 | 0.00 | 0.00 | 0.00 | 25 | 1016.5 |
| 20260902201019 | 26 | 250 | 4.8 | 9.7 | 0.00 | 0.00 | 0.00 | 25 | 1016.1 |
| 20260902200519 | 26 | 220 | 6.4 | 16.1 | 0.00 | 0.00 | 0.00 | 26 | 1016.2 |
| 20260902200019 | 26 | 273 | 6.4 | 17.7 | 0.00 | 0.00 | 0.00 | 25 | 1016.5 |
| 20260902195519 | 26 | 271 | 6.4 | 16.1 | 0.00 | 0.00 | 0.00 | 26 | 1016.3 |
| 20260902195020 | 26 | 279 | 4.8 | 20.9 | 0.00 | 0.00 | 0.00 | 25 | 1016.5 |
| 20260902194519 | 26 | 277 | 4.8 | 20.9 | 0.00 | 0.00 | 0.00 | 25 | 1016.4 |
| 20260902194020 | 26 | 183 | 4.8 | 11.3 | 0.00 | 0.00 | 0.00 | 27 | 1016.5 |
| 20260902193520 | 26 | 204 | 4.8 | 14.5 | 0.00 | 0.00 | 0.00 | 27 | 1016.4 |
| 20260902193020 | 26 | 237 | 3.2 | 9.7 | 0.00 | 0.00 | 0.00 | 27 | 1016.6 |
| 20260902192520 | 26 | 246 | 4.8 | 12.9 | 0.00 | 0.00 | 0.00 | 27 | 1016.6 |
| 20260902192020 | 26 | 234 | 4.8 | 12.9 | 0.00 | 0.00 | 0.00 | 26 | 1016.4 |
| 20260902191520 | 26 | 182 | 3.2 | 11.3 | 0.00 | 0.00 | 0.00 | 26 | 1016.5 |
| 20260902191020 | 26 | 247 | 3.2 | 14.5 | 0.00 | 0.00 | 0.00 | 27 | 1016.8 |
| 20260902190520 | 26 | 276 | 3.2 | 25.7 | 0.00 | 0.00 | 0.00 | 27 | 1016.7 |
| 20260902190020 | 25 | 259 | 3.2 | 9.7 | 0.00 | 0.00 | 0.00 | 30 | 1017.0 |
| 20260902185520 | 25 | 258 | 4.8 | 16.1 | 0.00 | 0.00 | 0.00 | 29 | 1016.9 |
| 20260902185020 | 25 | 246 | 4.8 | 19.3 | 0.00 | 0.00 | 0.00 | 29 | 1017.0 |
| 20260902184520 | 25 | 263 | 4.8 | 17.7 | 0.00 | 0.00 | 0.00 | 29 | 1017.0 |
| 20260902184020 | 25 | 177 | 3.2 | 9.7 | 0.00 | 0.00 | 0.00 | 30 | 1017.0 |
| 20260902183520 | 25 | 269 | 3.2 | 14.5 | 0.00 | 0.00 | 0.00 | 30 | 1017.1 |
| 20260902183020 | 25 | 275 | 4.8 | 14.5 | 0.00 | 0.00 | 0.00 | 30 | 1017.2 |
| 20260902182520 | 25 | 279 | 6.4 | 17.7 | 0.00 | 0.00 | 0.00 | 31 | 1017.4 |
| 20260902182020 | 25 | 273 | 6.4 | 27.4 | 0.00 | 0.00 | 0.00 | 30 | 1017.4 |
| 20260902181520 | 25 | 236 | 4.8 | 11.3 | 0.00 | 0.00 | 0.00 | 31 | 1017.4 |
| 20260902181020 | 25 | 239 | 4.8 | 11.3 | 0.00 | 0.00 | 0.00 | 32 | 1017.3 |
| 20260902180520 | 24 | 217 | 6.4 | 20.9 | 0.00 | 0.00 | 0.00 | 31 | 1017.5 |
| 20260902180020 | 24 | 217 | 4.8 | 19.3 | 0.00 | 0.00 | 0.00 | 31 | 1017.5 |
| 20260902175520 | 24 | 228 | 4.8 | 16.1 | 0.00 | 0.00 | 0.00 | 32 | 1017.7 |
| 20260902175020 | 24 | 254 | 4.8 | 20.9 | 0.00 | 0.00 | 0.00 | 32 | 1017.8 |
| 20260902174520 | 24 | 254 | 4.8 | 20.9 | 0.00 | 0.00 | 0.00 | 32 | 1017.7 |
| 20260902174020 | 24 | 262 | 4.8 | 11.3 | 0.00 | 0.00 | 0.00 | 34 | 1017.6 |
| 20260902173520 | 24 | 230 | 3.2 | 12.9 | 0.00 | 0.00 | 0.00 | 35 | 1017.9 |
| 20260902173020 | 24 | 193 | 4.8 | 16.1 | 0.00 | 0.00 | 0.00 | 36 | 1017.8 |
| 20260902172520 | 23 | 178 | 6.4 | 19.3 | 0.00 | 0.00 | 0.00 | 36 | 1017.8 |
| 20260902172020 | 23 | 262 | 6.4 | 19.3 | 0.00 | 0.00 | 0.00 | 37 | 1018.0 |
| 20260902171520 | 23 | 263 | 4.8 | 12.9 | 0.00 | 0.00 | 0.00 | 35 | 1018.1 |
| 20260902171020 | 23 | 236 | 4.8 | 22.5 | 0.00 | 0.00 | 0.00 | 36 | 1018.0 |
| 20260902170520 | 23 | 272 | 4.8 | 16.1 | 0.00 | 0.00 | 0.00 | 37 | 1018.0 |
| 20260902170020 | 23 | 250 | 4.8 | 22.5 | 0.00 | 0.00 | 0.00 | 36 | 1018.2 |
| 20260902165520 | 23 | 257 | 4.8 | 14.5 | 0.00 | 0.00 | 0.00 | 34 | 1018.2 |
| 20260902165020 | 23 | 252 | 4.8 | 12.9 | 0.00 | 0.00 | 0.00 | 37 | 1018.1 |
| 20260902164520 | 23 | 269 | 4.8 | 14.5 | 0.00 | 0.00 | 0.00 | 35 | 1018.1 |
| 20260902164020 | 23 | 271 | 4.8 | 22.5 | 0.00 | 0.00 | 0.00 | 36 | 1018.2 |
| 20260902163520 | 23 | 246 | 6.4 | 16.1 | 0.00 | 0.00 | 0.00 | 37 | 1018.0 |
| 20260902163020 | 23 | 262 | 6.4 | 24.1 | 0.00 | 0.00 | 0.00 | 37 | 1018.0 |
| 20260902162520 | 23 | 258 | 4.8 | 14.5 | 0.00 | 0.00 | 0.00 | 37 | 1018.2 |
| 20260902162020 | 22 | 212 | 3.2 | 14.5 | 0.00 | 0.00 | 0.00 | 38 | 1018.1 |
| 20260902161520 | 22 | 244 | 3.2 | 8.0 | 0.00 | 0.00 | 0.00 | 39 | 1018.0 |
| 20260902161020 | 22 | 250 | 1.6 | 11.3 | 0.00 | 0.00 | 0.00 | 40 | 1018.0 |
| 20260902160520 | 22 | 232 | 1.6 | 8.0 | 0.00 | 0.00 | 0.00 | 39 | 1018.0 |
| 20260902160020 | 22 | 229 | 1.6 | 11.3 | 0.00 | 0.00 | 0.00 | 41 | 1018.1 |
| 20260902155520 | 22 | 271 | 0.0 | 4.8 | 0.00 | 0.00 | 0.00 | 44 | 1017.9 |
| 20260902155020 | 22 | 271 | 0.0 | 6.4 | 0.00 | 0.00 | 0.00 | 45 | 1017.9 |
| 20260902154520 | 21 | 271 | 0.0 | 3.2 | 0.00 | 0.00 | 0.00 | 45 | 1018.0 |
| 20260902154020 | 21 | 271 | 1.6 | 8.0 | 0.00 | 0.00 | 0.00 | 44 | 1018.0 |
| 20260902153520 | 22 | 274 | 1.6 | 9.7 | 0.00 | 0.00 | 0.00 | 42 | 1018.2 |
| 20260902153020 | 22 | 276 | 1.6 | 6.4 | 0.00 | 0.00 | 0.00 | 42 | 1018.1 |